This is the latest recevied weather packets stored in our database for station/object R8AHC-W5. If no packets are shown the sender has not sent any weather packets the latest 10 day(s).
| Time | Temp. | Humidity | Pressure | Rain* | Wind** | Luminosity | Snow |
|---|---|---|---|---|---|---|---|
| 1777834502 | 7.78° C | 92% | 1019 hPa | - | 2.68 m/s, 126° | - | - |
| 1777830902 | 7.22° C | 93% | 1019 hPa | - | 2.24 m/s, 115° | - | - |
| 1777827302 | 7.22° C | 92% | 1020 hPa | - | 2.24 m/s, 122° | - | - |
| 1777823702 | 7.22° C | 90% | 1021 hPa | - | 1.79 m/s, 140° | - | - |
| 1777820102 | 7.78° C | 89% | 1021 hPa | - | 1.79 m/s, 157° | - | - |
| 1777816503 | 7.78° C | 88% | 1022 hPa | - | 2.24 m/s, 177° | - | - |
| 1777812902 | 7.78° C | 87% | 1022 hPa | - | 2.24 m/s, 185° | - | - |
| 1777809302 | 7.78° C | 81% | 1023 hPa | - | 2.68 m/s, 205° | - | - |
| 1777805702 | 8.89° C | 75% | 1023 hPa | - | 3.58 m/s, 217° | - | - |
| 1777802101 | 10° C | 65% | 1023 hPa | - | 4.47 m/s, 211° | - | - |
| 1777798502 | 11.11° C | 57% | 1023 hPa | - | 4.47 m/s, 202° | - | - |
| 1777794901 | 11.67° C | 50% | 1023 hPa | - | 3.58 m/s, 203° | - | - |
| 1777791302 | 11.67° C | 47% | 1023 hPa | - | 2.68 m/s, 204° | - | - |
| 1777787702 | 11.11° C | 46% | 1024 hPa | - | 2.24 m/s, 213° | - | - |
| 1777784102 | 10.56° C | 49% | 1024 hPa | - | 1.79 m/s, 223° | - | - |
| 1777780501 | 9.44° C | 54% | 1024 hPa | - | 0.89 m/s, 236° | - | - |
| 1777776902 | 7.78° C | 59% | 1025 hPa | - | 0.89 m/s, 287° | - | - |
| 1777773301 | 6.67° C | 66% | 1025 hPa | - | 0.89 m/s, 307° | - | - |
| 1777769702 | 5.56° C | 71% | 1024 hPa | - | 1.34 m/s, 317° | - | - |
| 1777766101 | 5.56° C | 72% | 1024 hPa | - | 1.79 m/s, 329° | - | - |
| 1777762502 | 5.56° C | 73% | 1024 hPa | - | 2.68 m/s, 326° | - | - |
| 1777758907 | 6.11° C | 74% | 1023 hPa | - | 2.68 m/s, 317° | - | - |
| 1777755302 | 6.11° C | 74% | 1023 hPa | - | 2.68 m/s, 307° | - | - |
| 1777748102 | 7.22° C | 72% | 1023 hPa | - | 2.68 m/s, 292° | - | - |
| 1777744502 | 7.22° C | 73% | 1023 hPa | - | 3.13 m/s, 272° | - | - |
* Rain since midnight (hover to see other rain measurements)
** Current wind speed in m/s (hover to see current wind gust speed)